Regional Weather Roundup
Issued by NWS

Home | Current Version | Previous Version | Graphics & Text | Print | Product List | Glossary On
Versions: 1 2 3 4 5 6 7 8 9 10 11 12 13 14 15 16 17 18 19 20 21 22 23 24 25 26 27
000
ASUS45 KCYS 110410
RWRWY

WYOMING REGIONAL WEATHER ROUNDUP
NATIONAL WEATHER SERVICE CHEYENNE WY
900 PM MST SUN DEC 10 2017

NOTE:  "FAIR" INDICATES FEW OR NO CLOUDS BELOW 12,000 FEET
WITH NO SIGNIFICANT WEATHER AND/OR OBSTRUCTIONS TO VISIBILITY.

WYZ001-110500-
YELLOWSTONE NATIONAL PARK

CITY           SKY/WX    TMP DP  RH WIND       PRES   REMARKS
LK YELLOWSTONE   N/A      8   5  87 CALM      30.58R
W YELLOWSTONE  NOT AVBL

$$
WYZ002>013-054>058-071-098>099-110500-
NORTHERN WYOMING

CITY           SKY/WX    TMP DP  RH WIND       PRES   REMARKS
JACKSON        FAIR      13  10  88 NE6       30.58R WCI   4
CODY           FAIR      28  14  55 S5        30.39R WCI  23
GREYBULL       FAIR      18   9  68 W5        30.38R WCI  11
WORLAND        FAIR      22  17  81 CALM      30.36R
SHERIDAN       FAIR      43  11  27 N10       30.32R
BUFFALO        FAIR      46   5  18 NW14G26   30.31R
GILLETTE       FAIR      35  15  44 W13       30.27R WCI  26
HULETT         FAIR      41  14  33 S13       30.23R
NEWCASTLE      FAIR      34  14  44 N9        30.24S WCI  26

$$
WYZ014>020-022>026-101>103-110500-
CENTRAL WYOMING

CITY           SKY/WX    TMP DP  RH WIND       PRES   REMARKS
BIG PINEY      FAIR      30   0  27 N10       30.49R WCI  21
PINEDALE       FAIR      27   5  39 NW10      30.49R WCI  17
DUBOIS         FAIR      36  -2  20 NW14      30.44S WCI  27
LANDER         FAIR      25  17  72 NW7       30.39R WCI  17
RIVERTON       FAIR      20  12  71 CALM      30.40S
CASPER         FAIR      35  16  45 SW14      30.36R WCI  26
DOUGLAS        FAIR      31  18  58 NW7       30.31R WCI  24

$$
WYZ021-027>030-104>119-110500-
SOUTHERN WYOMING

CITY           SKY/WX    TMP DP  RH WIND       PRES   REMARKS
EVANSTON       FAIR      30  13  49 S5        30.54S WCI  25
FORT BRIDGER   FAIR      34   7  32 W15       30.54S WCI  24
ROCK SPRINGS   FAIR      35   4  27 SW18      30.48R WCI  24
DIXON          FAIR      19  11  71 E10       30.53F WCI   7
RAWLINS        FAIR      34   8  33 SW8       30.44F WCI  27
SARATOGA       FAIR      21  12  68 S9G17     30.46F WCI  11
LARAMIE        FAIR      21   7  54 SE5       30.39F WCI  15
CHEYENNE       FAIR      38   3  23 W8        30.32F WCI  32
TORRINGTON     FAIR      39  10  30 NW9       30.26S WCI  33
PINE BLUFFS    FAIR      28   3  34 MISG      30.31F

$$




USA.gov is the U.S. government's official web portal to all federal, state and local government web resources and services.